CZ-6A DEB, 61409

Orbit data source: Space-Track

CZ-6A DEB, 61409 is space debris in LEO originally from a launch on Tue, 06 Aug 2024 UTC launched from the Taiyaun Space Center, China (TSC). Debris objects in space refer to the collection of defunct objects orbiting the Earth. Examples of debris include non-operational satellites, rocket bodies, and fragments generated from explosions, collisions, or faulty payload assembly.

Loading next visibility...
Identifier
61409, 2024-140YA
Orbit
LEO
Country
Flag of CNCN / PRC
Related business
Manufacturer
SAST
Mission
Spacecraft
Bus & Motor
Unknown
Mass
Unknown
Launch date (UTC)
2024-08-06 (2 years ago)
Launch vehicle
Unknown
Launch site
Taiyaun Space Center, China (TSC)
Object type
Payload
Rocket body
Debris
Shape & HBR
Unknown shape, 0.1 m
Radar Cross Section
Medium (>0.1 m² and <1 m²)

Expand to show TLE details & history
Last TLE update: 18 hours ago

TLE from 18 hours ago
0 CZ-6A DEB
1 61409U 24140YA  26171.22382985  .00014251  00000-0  15966-2 0  9999
2 61409  89.0290 270.1380 0096433 166.2260 194.1633 14.83393925 95434
Epoch: 2026-06-20T05:22Z
TLE epoch observation values (Epoch: 2026-06-20T05:22:18.899Z)
Latitude
0.00007°
Longitude
-78.88227°
Altitude
687.25 km
Speed
7.478 km/s
True Right ascension
18h 00m 33s
True Declination
0° 00' 00"
Sunlit
Object was in full shadow at epoch
Visualization orbit readout
Latitude
Unknown
Longitude
Unknown
Altitude
Unknown
Speed
Unknown
Apparent Right ascension
Unknown
Apparent Declination
Unknown
Sunlit
N/A
Visualization observer readout
Local Sidereal Time
10:19:49
Azimuth
Unknown
Elevation
Unknown
Doppler factor
Unknown
Orbital elements
Apogee altitude
682.934 km
Perigee altitude
548.05 km
Semi-major axis
6,993.629 km
Eccentricity
0.00964
Inclination
89.029°
RAAN
270.138°
Arg. of periapsis
166.226°
True anomaly
193.89604°
Mean anomaly
194.1633°
Eccentric anomaly
194.02936°
Mean motion
3.71099 °/min
Orbital period
97.01 mins
BSTAR
0.0015966
Loading maneuver chart data...
Computing Atmospheric mass density...
Loading historical data...
Loading historical data...
Loading historical data...
Loading historical data...
Loading historical data...
Loading historical data...
Loading historical data...

Documentation

Showing up to 5 results
|